Weather History for KLAM - August, 2013

Change the Weather History Date:

Wednesday, August 14, 2013

  Actual Average Record
Temperature  
Mean Temperature 69 °F -  
Max Temperature 77 °F 76 °F 88 °F (1962)
Min Temperature 61 °F 54 °F 50 °F (1975)
Cooling Degree Days 4    
Growing Degree Days 19 (Base 50)    
Moisture  
Dew Point 47 °F    
Average Humidity 51    
Maximum Humidity 77    
Minimum Humidity 24    
Precipitation  
Precipitation 0.01 in - - ()
Sea Level Pressure  
Sea Level Pressure 30.36 in    
Wind  
Wind Speed 8 mph (SSW)    
Max Wind Speed 17 mph    
Max Gust Speed 39 mph    
Visibility 10 miles    
Events Rain    
Averages and records for this station are not official NWS values.
T = Trace of Precipitation, MM = Missing Value Source: NWS Daily Summary

Daily Weather History Graph

Daily Weather History Graph

Search for Another Location

Airport or City:

Trip Planner

Search our weather history database for the weather conditions in past years. The results will help you decide how hot, cold, wet, or windy it might be!

Date:

Astronomy

Aug. 14, 2013 Rise Set
Actual Time 6:23 AM MDT 7:55 PM MDT
Civil Twilight 5:55 AM MDT 8:22 PM MDT
Nautical Twilight 5:23 AM MDT 8:55 PM MDT
Astronomical Twilight 4:48 AM MDT 9:29 PM MDT
Moon 2:08 PM MDT (8/14) No Moon Set
Length of Visible Light 14h 26m
Length of Day
13h 32m
First Quarter, 53% of the Moon is Illuminated
Aug 14
First Quarter
Aug 20
Full
Aug 28
Last Quarter
Sep 5
New
Sep 12
First Quarter

Hourly Weather History & Observations

Time (MDT) Temp. Dew Point Humidity Pressure Visibility Wind Dir Wind Speed Gust Speed Precip Events Conditions
12:15 AM 65.5 °F 43.9 °F 46% 30.37 in 10.0 mi South 6.9 mph - N/A   Clear
12:35 AM 65.3 °F 43.3 °F 45% 30.37 in 10.0 mi SSW 6.9 mph - N/A   Clear
12:55 AM 65.3 °F 43.9 °F 46% 30.37 in 10.0 mi SW 10.4 mph - N/A   Clear
1:15 AM 65.3 °F 45.9 °F 49% 30.37 in 10.0 mi SSW 11.5 mph - N/A   Clear
1:35 AM 64.8 °F 47.5 °F 53% 30.37 in 10.0 mi South 11.5 mph - N/A   Clear
1:55 AM 64.6 °F 48.9 °F 57% 30.37 in 10.0 mi SSW 9.2 mph - N/A   Clear
2:15 AM 64.4 °F 50.0 °F 59% 30.37 in 10.0 mi SSW 11.5 mph 18.4 mph N/A   Clear
2:35 AM 63.9 °F 50.5 °F 62% 30.38 in 10.0 mi SSW 10.4 mph - N/A   Clear
2:55 AM 63.9 °F 50.9 °F 63% 30.38 in 10.0 mi SW 12.7 mph - N/A   Scattered Clouds
3:15 AM 63.7 °F 51.6 °F 65% 30.38 in 10.0 mi SW 9.2 mph - N/A   Mostly Cloudy
3:35 AM 63.5 °F 51.8 °F 66% 30.37 in 10.0 mi SSW 9.2 mph - N/A   Mostly Cloudy
3:55 AM 63.5 °F 51.8 °F 66% 30.38 in 10.0 mi SW 10.4 mph - N/A   Scattered Clouds
4:15 AM 63.1 °F 51.8 °F 66% 30.38 in 10.0 mi SW 10.4 mph - N/A   Clear
4:35 AM 62.8 °F 51.8 °F 67% 30.38 in 10.0 mi SSW 9.2 mph - N/A   Scattered Clouds
4:55 AM 61.9 °F 51.8 °F 69% 30.38 in 10.0 mi SSW 10.4 mph - N/A   Clear
5:15 AM 61.7 °F 51.8 °F 70% 30.38 in 10.0 mi SW 6.9 mph - N/A   Clear
5:35 AM 61.9 °F 51.8 °F 69% 30.38 in 10.0 mi SSW 6.9 mph - N/A   Clear
5:55 AM 61.9 °F 52.3 °F 71% 30.38 in 10.0 mi SW 9.2 mph - N/A   Scattered Clouds
6:15 AM 61.7 °F 52.7 °F 72% 30.39 in 10.0 mi SSW 9.2 mph - N/A   Clear
6:35 AM 61.3 °F 52.7 °F 73% 30.39 in 10.0 mi SSW 6.9 mph - N/A   Clear
6:55 AM 61.2 °F 53.4 °F 76% 30.39 in 10.0 mi South 10.4 mph - N/A   Clear
7:15 AM 61.5 °F 53.6 °F 75% 30.39 in 10.0 mi South 6.9 mph - N/A   Clear
7:35 AM 62.2 °F 54.5 °F 76% 30.40 in 10.0 mi South 4.6 mph - N/A   Clear
7:55 AM 62.8 °F 55.4 °F 77% 30.40 in 10.0 mi South 8.1 mph - N/A   Clear
8:15 AM 63.1 °F 55.4 °F 76% 30.41 in 10.0 mi South 5.8 mph - N/A   Clear
8:35 AM 63.7 °F 55.4 °F 74% 30.40 in 10.0 mi South 3.5 mph - N/A   Clear
8:55 AM 64.8 °F 55.4 °F 72% 30.41 in 10.0 mi SE 3.5 mph - N/A   Scattered Clouds
9:15 AM 65.5 °F 55.6 °F 70% 30.41 in 10.0 mi South 8.1 mph - N/A   Scattered Clouds
9:35 AM 65.3 °F 55.4 °F 70% 30.41 in 10.0 mi SE 4.6 mph - N/A   Mostly Cloudy
9:55 AM 66.6 °F 55.4 °F 67% 30.41 in 10.0 mi ESE 3.5 mph - N/A   Scattered Clouds
10:15 AM 66.6 °F 55.8 °F 68% 30.41 in 10.0 mi South 4.6 mph - N/A   Mostly Cloudy
10:35 AM 66.6 °F 55.0 °F 66% 30.40 in 10.0 mi South 3.5 mph - N/A   Mostly Cloudy
10:55 AM 67.5 °F 55.8 °F 66% 30.41 in 10.0 mi Calm Calm - N/A   Overcast
11:15 AM 69.1 °F 55.8 °F 62% 30.41 in 10.0 mi East 6.9 mph - N/A   Overcast
11:35 AM 69.1 °F 55.4 °F 62% 30.41 in 10.0 mi South 4.6 mph - N/A   Overcast
11:55 AM 68.0 °F 57.4 °F 69% 30.41 in 10.0 mi Calm Calm - 0.01 in Rain Light Rain
12:15 PM 68.2 °F 53.1 °F 58% 30.39 in 10.0 mi SE 9.2 mph - N/A Rain Light Rain
12:35 PM 70.9 °F 38.1 °F 30% 30.37 in 10.0 mi SE 17.3 mph 39.1 mph N/A Rain Light Rain
12:55 PM 72.5 °F 39.4 °F 30% 30.37 in 10.0 mi Calm Calm - N/A   Mostly Cloudy
1:55 PM 77.7 °F 37.6 °F 24% 30.35 in 10.0 mi Calm Calm - N/A   Mostly Cloudy
2:15 PM 75.7 °F 38.3 °F 26% 30.35 in 10.0 mi NW 13.8 mph 24.2 mph N/A   Mostly Cloudy
2:35 PM 73.8 °F 40.8 °F 30% 30.35 in 10.0 mi SW 12.7 mph - N/A   Overcast
2:55 PM 72.5 °F 42.6 °F 34% 30.34 in 10.0 mi SSW 13.8 mph - N/A   Mostly Cloudy
3:15 PM 72.3 °F 41.5 °F 33% 30.31 in 10.0 mi South 13.8 mph 17.3 mph N/A   Scattered Clouds
3:35 PM 74.1 °F 40.8 °F 30% 30.31 in 10.0 mi South 15.0 mph - N/A   Scattered Clouds
3:55 PM 74.3 °F 40.6 °F 30% 30.31 in 10.0 mi South 17.3 mph 21.9 mph N/A   Clear
4:15 PM 74.5 °F 40.1 °F 29% 30.31 in 10.0 mi South 13.8 mph 23.0 mph N/A   Clear
4:35 PM 74.1 °F 40.1 °F 29% 30.31 in 10.0 mi South 17.3 mph 24.2 mph N/A   Clear
4:55 PM 73.0 °F 42.8 °F 34% 30.30 in 10.0 mi South 10.4 mph - N/A   Clear
5:15 PM 73.4 °F 43.0 °F 34% 30.28 in 10.0 mi South 12.7 mph - N/A   Clear
5:35 PM 74.5 °F 43.0 °F 32% 30.28 in 10.0 mi SSE 9.2 mph - N/A   Clear
5:55 PM 73.4 °F 44.1 °F 35% 30.28 in 10.0 mi SE 10.4 mph - N/A   Clear
6:15 PM 72.9 °F 45.5 °F 38% 30.28 in 10.0 mi SSE 6.9 mph - N/A   Clear
6:35 PM 71.8 °F 44.2 °F 37% 30.29 in 10.0 mi ESE 5.8 mph - N/A   Clear
6:55 PM 72.3 °F 42.8 °F 35% 30.30 in 10.0 mi SE 3.5 mph - N/A   Scattered Clouds
7:15 PM 71.8 °F 42.8 °F 35% 30.30 in 10.0 mi South 3.5 mph - N/A   Clear
7:35 PM 71.2 °F 42.4 °F 35% 30.31 in 10.0 mi South 5.8 mph - N/A   Clear
7:55 PM 70.2 °F 43.7 °F 38% 30.31 in 10.0 mi SW 5.8 mph - N/A   Clear
8:15 PM 69.3 °F 44.8 °F 41% 30.31 in 10.0 mi WSW 6.9 mph - N/A   Clear
8:35 PM 70.0 °F 45.9 °F 42% 30.31 in 10.0 mi West 9.2 mph - N/A   Clear
8:55 PM 72.5 °F 37.8 °F 28% 30.31 in 10.0 mi West 5.8 mph - N/A   Clear
9:15 PM 71.6 °F 36.5 °F 28% 30.31 in 10.0 mi West 5.8 mph - N/A   Clear
9:35 PM 71.1 °F 36.3 °F 28% 30.32 in 10.0 mi West 6.9 mph - N/A   Clear
9:55 PM 68.4 °F 38.7 °F 34% 30.34 in 10.0 mi SSE 8.1 mph - N/A   Clear
10:15 PM 67.5 °F 41.9 °F 39% 30.35 in 10.0 mi South 6.9 mph - N/A   Clear
10:35 PM 67.1 °F 43.5 °F 42% 30.35 in 10.0 mi South 9.2 mph - N/A   Clear
10:55 PM 65.8 °F 45.9 °F 48% 30.35 in 10.0 mi SSW 8.1 mph - N/A   Clear
11:15 PM 65.5 °F 45.5 °F 48% 30.35 in 10.0 mi SSW 8.1 mph - N/A   Clear
11:35 PM 65.7 °F 45.5 °F 48% 30.36 in 10.0 mi SSW 9.2 mph - N/A   Clear
11:55 PM 65.7 °F 45.7 °F 48% 30.37 in 10.0 mi SSW 9.2 mph - N/A   Clear